STARLINK-32039 (60604 NORAD) Tracking and Keplerian Element Data

This shows tracking and keplerian element data for the satellite.

Feedback or suggestion? Click here.




ElementValue
Catalog60604
NameSTARLINK-32039
Epoch Orbit948
Epoch Day286.84462364
Epoch Year2024
RAAN171.9008
Inclination53.1586
Eccentricity7.26E-05
Argument of Perigee48.1928
Mean Anonmoly311.9135
Mean Motion15.30203931
Decay Rate4.687E-05
L11 60604U 24150X 24286.84462364 .00004687 00000+0 17024-3 0 9998
L22 60604 53.1586 171.9008 0000726 48.1928 311.9135 15.30203931 9480



Live tracking and technical data element details for STARLINK-32039 (NORAD 60604). STARLINK-32039 can be tracked NOW for your location showing map with azimuth and elevation plus other details from your city location.







IsCatalogInMostPopularTable: catalog: 60604, numindb: 9
Update: records affected: 1



GetName: 60604 STARLINK-32039

Hit Count: updated at: Wed, 04 Dec 2024 19:22:55 GMT